User: anonymous   Login
Location: Vancouver
(49.2500°N, 123.1330°W)
Time: 13:48:34
(UTC-07:00)
Language:

Iridium 35 - Orbit

View from above orbital plane
View from above orbital plane
View from above satellite
View from above satellite

Ground track
Ground track

The orbit data is extracted from the following two-line orbital elements,

1 24966U 97056B   16183.26925875  .00000162  00000-0  50685-4 0  9994
2 24966  86.3979 105.4193 0002290  84.5619 275.5838 14.34216518982237
Epoch (UTC): 01 July 2016 06:27:43
Eccentricity: 0.0002290
inclination: 86.3979°
perigee height: 776 km
apogee height: 779 km
right ascension of ascending node: 105.4193°
argument of perigee: 84.5619°
revolutions per day: 14.34216518
mean anomaly at epoch: 275.5838°
orbit number at epoch: 98223

The dashed part of the orbit path shows where the satellite is in the earth's shadow,  

DLR